Year,Month,Day,Hour,Minute,Value (Times are PST for windspeed in km/hr)
2014,07,19,00,00,54.40
2014,07,19,00,01,55.50
2014,07,19,00,02,55.30
2014,07,19,00,03,55.90
2014,07,19,00,04,55.80
2014,07,19,00,05,54.00
2014,07,19,00,06,53.30
2014,07,19,00,07,52.20
2014,07,19,00,08,52.80
2014,07,19,00,09,52.20
2014,07,19,00,10,51.00
2014,07,19,00,11,50.90
2014,07,19,00,12,49.10
2014,07,19,00,13,50.10
2014,07,19,00,14,48.00
2014,07,19,00,15,47.40
2014,07,19,00,16,46.90
2014,07,19,00,17,46.20
2014,07,19,00,18,44.10
2014,07,19,00,19,43.90
2014,07,19,00,20,43.50
2014,07,19,00,21,43.50
2014,07,19,00,22,43.50
2014,07,19,00,23,43.50
2014,07,19,00,24,43.30
2014,07,19,00,25,43.80
2014,07,19,00,26,45.00
2014,07,19,00,27,44.00
2014,07,19,00,28,47.30
2014,07,19,00,29,46.90
2014,07,19,00,30,46.10
2014,07,19,00,31,45.30
2014,07,19,00,32,43.00
2014,07,19,00,33,38.30
2014,07,19,00,34,36.00
2014,07,19,00,35,34.20
2014,07,19,00,36,34.40
2014,07,19,00,37,36.90
2014,07,19,00,38,33.70
2014,07,19,00,39,34.40
2014,07,19,00,40,34.30
2014,07,19,00,41,33.60
2014,07,19,00,42,33.20
2014,07,19,00,43,38.40
2014,07,19,00,44,42.60
2014,07,19,00,45,43.20
2014,07,19,00,46,44.80
2014,07,19,00,47,45.90
2014,07,19,00,48,47.00
2014,07,19,00,49,44.50
2014,07,19,00,50,45.80
2014,07,19,00,51,45.40
2014,07,19,00,52,42.60
2014,07,19,00,53,39.40
2014,07,19,00,54,41.50
2014,07,19,00,55,46.10
2014,07,19,00,56,47.70
2014,07,19,00,57,50.10
2014,07,19,00,58,50.90
2014,07,19,00,59,51.70
2014,07,19,01,00,51.70
2014,07,19,01,01,53.30
2014,07,19,01,02,52.70
2014,07,19,01,03,53.00
2014,07,19,01,04,53.80
2014,07,19,01,05,53.50
2014,07,19,01,06,53.80
2014,07,19,01,07,53.00
2014,07,19,01,08,52.80
2014,07,19,01,09,53.60
2014,07,19,01,10,53.30
2014,07,19,01,11,51.80
2014,07,19,01,12,50.60
2014,07,19,01,13,49.90
2014,07,19,01,14,49.70
2014,07,19,01,15,48.30
2014,07,19,01,16,47.60
2014,07,19,01,17,45.10
2014,07,19,01,18,43.70
2014,07,19,01,19,42.20
2014,07,19,01,20,44.70
2014,07,19,01,21,47.80
2014,07,19,01,22,49.30
2014,07,19,01,23,51.90
2014,07,19,01,24,50.10
2014,07,19,01,25,47.30
2014,07,19,01,26,44.70
2014,07,19,01,27,43.50
2014,07,19,01,28,38.50
2014,07,19,01,29,43.20
2014,07,19,01,30,53.80
2014,07,19,01,31,55.40
2014,07,19,01,32,59.60
2014,07,19,01,33,59.40
2014,07,19,01,34,59.50
2014,07,19,01,35,58.20
2014,07,19,01,36,62.00
2014,07,19,01,37,63.80
2014,07,19,01,38,63.80
2014,07,19,01,39,62.40
2014,07,19,01,40,62.80
2014,07,19,01,41,63.40
2014,07,19,01,42,62.70
2014,07,19,01,43,61.00
2014,07,19,01,44,59.50
2014,07,19,01,45,59.00
2014,07,19,01,46,57.20
2014,07,19,01,47,53.90
2014,07,19,01,48,52.00
2014,07,19,01,49,49.20
2014,07,19,01,50,48.60
2014,07,19,01,51,48.30
2014,07,19,01,52,46.50
2014,07,19,01,53,45.70
2014,07,19,01,54,44.30
2014,07,19,01,55,44.50
2014,07,19,01,56,43.60
2014,07,19,01,57,43.50
2014,07,19,01,58,43.70
2014,07,19,01,59,44.90
2014,07,19,02,00,43.00
2014,07,19,02,01,44.00
2014,07,19,02,02,43.90
2014,07,19,02,03,45.30
2014,07,19,02,04,46.40
2014,07,19,02,05,46.40
2014,07,19,02,06,47.40
2014,07,19,02,07,48.80
2014,07,19,02,08,50.80
2014,07,19,02,09,51.40
2014,07,19,02,10,52.60
2014,07,19,02,11,53.30
2014,07,19,02,12,55.50
2014,07,19,02,13,54.30
2014,07,19,02,14,54.30
2014,07,19,02,15,54.00
2014,07,19,02,16,57.40
2014,07,19,02,17,56.10
2014,07,19,02,18,55.60
2014,07,19,02,19,52.30
2014,07,19,02,20,51.20
2014,07,19,02,21,55.00
2014,07,19,02,22,58.00
2014,07,19,02,23,59.20
2014,07,19,02,24,58.90
2014,07,19,02,25,56.80
2014,07,19,02,26,53.90
2014,07,19,02,27,51.20
2014,07,19,02,28,48.40
2014,07,19,02,29,46.80
2014,07,19,02,30,45.80
2014,07,19,02,31,45.20
2014,07,19,02,32,44.70
2014,07,19,02,33,45.50
2014,07,19,02,34,46.70
2014,07,19,02,35,45.50
2014,07,19,02,36,44.30
2014,07,19,02,37,46.70
2014,07,19,02,38,49.80
2014,07,19,02,39,53.60
2014,07,19,02,40,54.70
2014,07,19,02,41,58.90
2014,07,19,02,42,57.10
2014,07,19,02,43,56.70
2014,07,19,02,44,61.10
2014,07,19,02,45,62.20
2014,07,19,02,46,60.90
2014,07,19,02,47,62.10
2014,07,19,02,48,63.60
2014,07,19,02,49,63.40
2014,07,19,02,50,64.70
2014,07,19,02,51,64.80
2014,07,19,02,52,64.70
2014,07,19,02,53,63.40
2014,07,19,02,54,61.20
2014,07,19,02,55,58.70
2014,07,19,02,56,53.70
2014,07,19,02,57,54.30
2014,07,19,02,58,48.40
2014,07,19,02,59,47.10
2014,07,19,03,00,45.50
2014,07,19,03,01,43.10
2014,07,19,03,02,43.80
2014,07,19,03,03,42.60
2014,07,19,03,04,41.00
2014,07,19,03,05,41.20
2014,07,19,03,06,43.70
2014,07,19,03,07,46.20
2014,07,19,03,08,43.40
2014,07,19,03,09,42.90
2014,07,19,03,10,42.60
2014,07,19,03,11,42.20
2014,07,19,03,12,42.60
2014,07,19,03,13,41.70
2014,07,19,03,14,40.60
2014,07,19,03,15,39.90
2014,07,19,03,16,39.20
2014,07,19,03,17,39.10
2014,07,19,03,18,38.30
2014,07,19,03,19,38.50
2014,07,19,03,20,38.40
2014,07,19,03,21,37.90
2014,07,19,03,22,38.20
2014,07,19,03,23,37.50
2014,07,19,03,24,37.00
2014,07,19,03,25,36.50
2014,07,19,03,26,36.70
2014,07,19,03,27,37.60
2014,07,19,03,28,37.00
2014,07,19,03,29,36.40
2014,07,19,03,30,36.90
2014,07,19,03,31,37.10
2014,07,19,03,32,35.80
2014,07,19,03,33,35.60
2014,07,19,03,34,35.90
2014,07,19,03,35,34.90
2014,07,19,03,36,35.90
2014,07,19,03,37,35.40
2014,07,19,03,38,35.20
2014,07,19,03,39,34.40
2014,07,19,03,40,33.60
2014,07,19,03,41,33.80
2014,07,19,03,42,33.10
2014,07,19,03,43,34.40
2014,07,19,03,44,34.90
2014,07,19,03,45,32.50
2014,07,19,03,46,31.50
2014,07,19,03,47,32.60
2014,07,19,03,48,31.40
2014,07,19,03,49,32.50
2014,07,19,03,50,32.90
2014,07,19,03,51,34.40
2014,07,19,03,52,34.60
2014,07,19,03,53,33.80
2014,07,19,03,54,33.80
2014,07,19,03,55,33.50
2014,07,19,03,56,31.70
2014,07,19,03,57,31.40
2014,07,19,03,58,30.00
2014,07,19,03,59,31.10
2014,07,19,04,00,31.80
2014,07,19,04,01,32.30
2014,07,19,04,02,31.20
2014,07,19,04,03,30.90
2014,07,19,04,04,24.80
2014,07,19,04,05,23.20
2014,07,19,04,06,23.90
2014,07,19,04,07,23.30
2014,07,19,04,08,26.30
2014,07,19,04,09,25.40
2014,07,19,04,10,26.50
2014,07,19,04,11,24.10
2014,07,19,04,12,24.20
2014,07,19,04,13,21.80
2014,07,19,04,14,21.90
2014,07,19,04,15,20.00
2014,07,19,04,16,21.60
2014,07,19,04,17,21.90
2014,07,19,04,18,23.00
2014,07,19,04,19,23.20
2014,07,19,04,20,24.80
2014,07,19,04,21,23.60
2014,07,19,04,22,22.60
2014,07,19,04,23,22.90
2014,07,19,04,24,20.50
2014,07,19,04,25,16.80
2014,07,19,04,26,20.40
2014,07,19,04,27,23.80
2014,07,19,04,28,25.50
2014,07,19,04,29,26.30
2014,07,19,04,30,24.50
2014,07,19,04,31,25.60
2014,07,19,04,32,30.00
2014,07,19,04,33,29.70
2014,07,19,04,34,29.90
2014,07,19,04,35,26.60
2014,07,19,04,36,25.50
2014,07,19,04,37,29.10
2014,07,19,04,38,29.00
2014,07,19,04,39,28.60
2014,07,19,04,40,29.90
2014,07,19,04,41,27.20
2014,07,19,04,42,29.70
2014,07,19,04,43,28.20
2014,07,19,04,44,30.00
2014,07,19,04,45,30.80
2014,07,19,04,46,31.50
2014,07,19,04,47,31.00
2014,07,19,04,48,32.30
2014,07,19,04,49,33.60
2014,07,19,04,50,35.20
2014,07,19,04,51,36.40
2014,07,19,04,52,36.20
2014,07,19,04,53,35.80
2014,07,19,04,54,35.90
2014,07,19,04,55,38.00
2014,07,19,04,56,38.50
2014,07,19,04,57,39.90
2014,07,19,04,58,40.90
2014,07,19,04,59,40.80
2014,07,19,05,00,43.20
2014,07,19,05,01,46.10
2014,07,19,05,02,45.50
2014,07,19,05,03,46.50
2014,07,19,05,04,47.90
2014,07,19,05,05,49.70
2014,07,19,05,06,50.00
2014,07,19,05,07,51.00
2014,07,19,05,08,52.20
2014,07,19,05,09,51.40
2014,07,19,05,10,50.80
2014,07,19,05,11,51.00
2014,07,19,05,12,52.00
2014,07,19,05,13,52.00
2014,07,19,05,14,50.10
2014,07,19,05,15,52.00
2014,07,19,05,16,53.30
2014,07,19,05,17,54.90
2014,07,19,05,18,55.60
2014,07,19,05,19,55.10
2014,07,19,05,20,56.20
2014,07,19,05,21,54.60
2014,07,19,05,22,54.10
2014,07,19,05,23,53.20
2014,07,19,05,24,55.20
2014,07,19,05,25,55.40
2014,07,19,05,26,54.90
2014,07,19,05,27,52.40
2014,07,19,05,28,51.60
2014,07,19,05,29,52.80
2014,07,19,05,30,52.90
2014,07,19,05,31,53.20
2014,07,19,05,32,53.00
2014,07,19,05,33,54.80
2014,07,19,05,34,54.80
2014,07,19,05,35,53.50
2014,07,19,05,36,55.40
2014,07,19,05,37,53.70
2014,07,19,05,38,52.90
2014,07,19,05,39,52.70
2014,07,19,05,40,53.50
2014,07,19,05,41,52.60
2014,07,19,05,42,52.70
2014,07,19,05,43,51.00
2014,07,19,05,44,51.00
2014,07,19,05,45,48.20
2014,07,19,05,46,45.10
2014,07,19,05,47,45.10
2014,07,19,05,48,45.30
2014,07,19,05,49,41.50
2014,07,19,05,50,42.50
2014,07,19,05,51,43.00
2014,07,19,05,52,43.70
2014,07,19,05,53,43.60
2014,07,19,05,54,43.10
2014,07,19,05,55,42.80
2014,07,19,05,56,41.40
2014,07,19,05,57,42.60
2014,07,19,05,58,43.00
2014,07,19,05,59,42.70
2014,07,19,06,00,42.50
2014,07,19,06,01,39.50
2014,07,19,06,02,36.40
2014,07,19,06,03,34.60
2014,07,19,06,04,32.00
2014,07,19,06,05,30.60
2014,07,19,06,06,28.80
2014,07,19,06,07,26.80
2014,07,19,06,08,25.70
2014,07,19,06,09,30.00
2014,07,19,06,10,34.90
2014,07,19,06,11,36.10
2014,07,19,06,12,32.70
2014,07,19,06,13,31.10
2014,07,19,06,14,32.30
2014,07,19,06,15,32.40
2014,07,19,06,16,33.20
2014,07,19,06,17,34.40
2014,07,19,06,18,35.00
2014,07,19,06,19,34.50
2014,07,19,06,20,34.40
2014,07,19,06,21,35.10
2014,07,19,06,22,34.60
2014,07,19,06,23,34.90
2014,07,19,06,24,35.10
2014,07,19,06,25,35.40
2014,07,19,06,26,34.10
2014,07,19,06,27,33.10
2014,07,19,06,28,34.90
2014,07,19,06,29,33.50
2014,07,19,06,30,31.70
2014,07,19,06,31,31.90
2014,07,19,06,32,33.00
2014,07,19,06,33,33.90
2014,07,19,06,34,35.10
2014,07,19,06,35,35.10
2014,07,19,06,36,34.40
2014,07,19,06,37,34.90
2014,07,19,06,38,33.80
2014,07,19,06,39,33.60
2014,07,19,06,40,32.80
2014,07,19,06,41,32.60
2014,07,19,06,42,32.40
2014,07,19,06,43,31.90
2014,07,19,06,44,32.60
2014,07,19,06,45,33.50
2014,07,19,06,46,32.50
2014,07,19,06,47,32.40
2014,07,19,06,48,30.80
2014,07,19,06,49,29.50
2014,07,19,06,50,29.40
2014,07,19,06,51,30.60
2014,07,19,06,52,30.70
2014,07,19,06,53,30.90
2014,07,19,06,54,29.00
2014,07,19,06,55,28.10
2014,07,19,06,56,27.10
2014,07,19,06,57,26.60
2014,07,19,06,58,27.20
2014,07,19,06,59,24.60
2014,07,19,07,00,26.30
2014,07,19,07,01,25.30
2014,07,19,07,02,25.80
2014,07,19,07,03,25.10
2014,07,19,07,04,26.60
2014,07,19,07,05,25.80
2014,07,19,07,06,24.80
2014,07,19,07,07,25.40
2014,07,19,07,08,26.00
2014,07,19,07,09,25.60
2014,07,19,07,10,24.40
2014,07,19,07,11,24.20
2014,07,19,07,12,24.20
2014,07,19,07,13,26.50
2014,07,19,07,14,27.40
2014,07,19,07,15,28.40
2014,07,19,07,16,27.00
2014,07,19,07,17,27.20
2014,07,19,07,18,29.50
2014,07,19,07,19,29.20
2014,07,19,07,20,29.00
2014,07,19,07,21,29.10
2014,07,19,07,22,29.10
2014,07,19,07,23,28.50
2014,07,19,07,24,26.50
2014,07,19,07,25,27.70
2014,07,19,07,26,24.70
2014,07,19,07,27,22.40
2014,07,19,07,28,24.90
2014,07,19,07,29,28.30
2014,07,19,07,30,27.10
2014,07,19,07,31,27.70
2014,07,19,07,32,27.10
2014,07,19,07,33,27.20
2014,07,19,07,34,28.30
2014,07,19,07,35,29.80
2014,07,19,07,36,28.30
2014,07,19,07,37,27.00
2014,07,19,07,38,29.80
2014,07,19,07,39,31.00
2014,07,19,07,40,27.40
2014,07,19,07,41,23.40
2014,07,19,07,42,27.80
2014,07,19,07,43,30.00
2014,07,19,07,44,29.80
2014,07,19,07,45,29.90
2014,07,19,07,46,31.40
2014,07,19,07,47,32.30
2014,07,19,07,48,29.50
2014,07,19,07,49,27.80
2014,07,19,07,50,31.40
2014,07,19,07,51,31.90
2014,07,19,07,52,31.20
2014,07,19,07,53,30.90
2014,07,19,07,54,32.20
2014,07,19,07,55,31.50
2014,07,19,07,56,32.70
2014,07,19,07,57,34.20
2014,07,19,07,58,30.00
2014,07,19,07,59,30.20
2014,07,19,08,00,33.00
2014,07,19,08,01,31.20
2014,07,19,08,02,29.20
2014,07,19,08,03,29.30
2014,07,19,08,04,31.40
2014,07,19,08,05,27.90
2014,07,19,08,06,27.00
2014,07,19,08,07,29.90
2014,07,19,08,08,29.20
2014,07,19,08,09,28.00
2014,07,19,08,10,29.10
2014,07,19,08,11,30.20
2014,07,19,08,12,28.00
2014,07,19,08,13,27.40
2014,07,19,08,14,27.30
2014,07,19,08,15,26.40
2014,07,19,08,16,26.30
2014,07,19,08,17,26.00
2014,07,19,08,18,24.80
2014,07,19,08,19,25.30
2014,07,19,08,20,27.70
2014,07,19,08,21,24.10
2014,07,19,08,22,24.90
2014,07,19,08,23,24.40
2014,07,19,08,24,24.60
2014,07,19,08,25,23.40
2014,07,19,08,26,22.50
2014,07,19,08,27,23.30
2014,07,19,08,28,21.80
2014,07,19,08,29,21.60
2014,07,19,08,30,23.10
2014,07,19,08,31,25.70
2014,07,19,08,32,24.80
2014,07,19,08,33,24.50
2014,07,19,08,34,25.50
2014,07,19,08,35,26.70
2014,07,19,08,36,27.10
2014,07,19,08,37,25.30
2014,07,19,08,38,24.70
2014,07,19,08,39,26.30
2014,07,19,08,40,27.90
2014,07,19,08,41,29.50
2014,07,19,08,42,29.60
2014,07,19,08,43,28.50
2014,07,19,08,44,29.00
2014,07,19,08,45,29.10
2014,07,19,08,46,29.20
2014,07,19,08,47,30.50
2014,07,19,08,48,31.00
2014,07,19,08,49,32.60
2014,07,19,08,50,31.90
2014,07,19,08,51,32.30
2014,07,19,08,52,30.80
2014,07,19,08,53,31.00
2014,07,19,08,54,31.30
2014,07,19,08,55,32.30
2014,07,19,08,56,33.30
2014,07,19,08,57,35.20
2014,07,19,08,58,32.90
2014,07,19,08,59,31.20
2014,07,19,09,00,32.40
2014,07,19,09,01,32.20
2014,07,19,09,02,31.00
2014,07,19,09,03,30.20
2014,07,19,09,04,31.60
2014,07,19,09,05,30.00
2014,07,19,09,06,29.60
2014,07,19,09,07,31.50
2014,07,19,09,08,32.50
2014,07,19,09,09,29.00
2014,07,19,09,10,28.80
2014,07,19,09,11,29.80
2014,07,19,09,12,28.30
2014,07,19,09,13,27.70
2014,07,19,09,14,27.70
2014,07,19,09,15,29.30
2014,07,19,09,16,29.60
2014,07,19,09,17,26.70
2014,07,19,09,18,26.60
2014,07,19,09,19,26.40
2014,07,19,09,20,27.10
2014,07,19,09,21,27.40
2014,07,19,09,22,27.40
2014,07,19,09,23,27.40
2014,07,19,09,24,27.40
2014,07,19,09,25,26.90
2014,07,19,09,26,22.60
2014,07,19,09,27,20.70
2014,07,19,09,28,21.20
2014,07,19,09,29,25.30
2014,07,19,09,30,27.40
2014,07,19,09,31,24.10
2014,07,19,09,32,22.50
2014,07,19,09,33,21.90
2014,07,19,09,34,22.00
2014,07,19,09,35,21.20
2014,07,19,09,36,21.20
2014,07,19,09,37,21.90
2014,07,19,09,38,22.00
2014,07,19,09,39,23.00
2014,07,19,09,40,24.90
2014,07,19,09,41,27.00
2014,07,19,09,42,27.20
2014,07,19,09,43,27.00
2014,07,19,09,44,26.10
2014,07,19,09,45,26.30
2014,07,19,09,46,25.70
2014,07,19,09,47,25.70
2014,07,19,09,48,25.70
2014,07,19,09,49,25.20
2014,07,19,09,50,24.70
2014,07,19,09,51,25.00
2014,07,19,09,52,25.50
2014,07,19,09,53,26.70
2014,07,19,09,54,27.40
2014,07,19,09,55,28.80
2014,07,19,09,56,29.70
2014,07,19,09,57,30.70
2014,07,19,09,58,31.10
2014,07,19,09,59,30.90
2014,07,19,10,00,30.70
2014,07,19,10,01,30.10
2014,07,19,10,02,29.50
2014,07,19,10,03,28.70
2014,07,19,10,04,28.50
2014,07,19,10,05,29.10
2014,07,19,10,06,30.30
2014,07,19,10,07,31.30
2014,07,19,10,08,30.90
2014,07,19,10,09,28.70
2014,07,19,10,10,27.20
2014,07,19,10,11,29.10
2014,07,19,10,12,31.30
2014,07,19,10,13,30.90
2014,07,19,10,14,32.00
2014,07,19,10,15,33.50
2014,07,19,10,16,32.30
2014,07,19,10,17,35.20
2014,07,19,10,18,35.40
2014,07,19,10,19,30.60
2014,07,19,10,20,27.60
2014,07,19,10,21,30.50
2014,07,19,10,22,30.10
2014,07,19,10,23,32.70
2014,07,19,10,24,31.90
2014,07,19,10,25,31.00
2014,07,19,10,26,27.60
2014,07,19,10,27,32.70
2014,07,19,10,28,33.60
2014,07,19,10,29,28.60
2014,07,19,10,30,28.80
2014,07,19,10,31,26.00
2014,07,19,10,32,24.40
2014,07,19,10,33,25.50
2014,07,19,10,34,31.20
2014,07,19,10,35,29.70
2014,07,19,10,36,27.10
2014,07,19,10,37,27.00
2014,07,19,10,38,26.10
2014,07,19,10,39,27.10
2014,07,19,10,40,26.40
2014,07,19,10,41,25.90
2014,07,19,10,42,25.00
2014,07,19,10,43,24.60
2014,07,19,10,44,25.40
2014,07,19,10,45,26.90
2014,07,19,10,46,25.40
2014,07,19,10,47,25.40
2014,07,19,10,48,26.60
2014,07,19,10,49,23.30
2014,07,19,10,50,22.90
2014,07,19,10,51,23.80
2014,07,19,10,52,24.20
2014,07,19,10,53,24.20
2014,07,19,10,54,24.70
2014,07,19,10,55,24.00
2014,07,19,10,56,23.80
2014,07,19,10,57,23.90
2014,07,19,10,58,26.30
2014,07,19,10,59,25.70
2014,07,19,11,00,25.70
2014,07,19,11,01,23.90
2014,07,19,11,02,24.40
2014,07,19,11,03,24.80
2014,07,19,11,04,24.60
2014,07,19,11,05,29.10
2014,07,19,11,06,29.00
2014,07,19,11,07,25.70
2014,07,19,11,08,30.90
2014,07,19,11,09,32.90
2014,07,19,11,10,29.70
2014,07,19,11,11,31.40
2014,07,19,11,12,33.40
2014,07,19,11,13,33.90
2014,07,19,11,14,26.40
2014,07,19,11,15,26.50
2014,07,19,11,16,25.80
2014,07,19,11,17,26.20
2014,07,19,11,18,23.80
2014,07,19,11,19,22.50
2014,07,19,11,20,23.70
2014,07,19,11,21,24.90
2014,07,19,11,22,25.10
2014,07,19,11,23,26.60
2014,07,19,11,24,26.10
2014,07,19,11,25,27.90
2014,07,19,11,26,28.20
2014,07,19,11,27,29.70
2014,07,19,11,28,28.50
2014,07,19,11,29,27.50
2014,07,19,11,30,25.30
2014,07,19,11,31,26.40
2014,07,19,11,32,26.30
2014,07,19,11,33,31.10
2014,07,19,11,34,25.50
2014,07,19,11,35,27.00
2014,07,19,11,36,24.00
2014,07,19,11,37,26.00
2014,07,19,11,38,26.80
2014,07,19,11,39,24.50
2014,07,19,11,40,26.60
2014,07,19,11,41,28.80
2014,07,19,11,42,27.90
2014,07,19,11,43,24.30
2014,07,19,11,44,27.10
2014,07,19,11,45,31.00
2014,07,19,11,46,34.80
2014,07,19,11,47,29.90
2014,07,19,11,48,28.50
2014,07,19,11,49,25.20
2014,07,19,11,50,29.00
2014,07,19,11,51,27.90
2014,07,19,11,52,25.20
2014,07,19,11,53,25.40
2014,07,19,11,54,24.10
2014,07,19,11,55,23.60
2014,07,19,11,56,24.90
2014,07,19,11,57,24.50
2014,07,19,11,58,23.60
2014,07,19,11,59,25.40
2014,07,19,12,00,24.70
2014,07,19,12,01,28.30
2014,07,19,12,02,25.90
2014,07,19,12,03,21.40
2014,07,19,12,04,20.80
2014,07,19,12,05,23.00
2014,07,19,12,06,26.10
2014,07,19,12,07,23.20
2014,07,19,12,08,29.40
2014,07,19,12,09,31.80
2014,07,19,12,10,24.60
2014,07,19,12,11,19.30
2014,07,19,12,12,23.40
2014,07,19,12,13,20.50
2014,07,19,12,14,24.70
2014,07,19,12,15,27.20
2014,07,19,12,16,22.70
2014,07,19,12,17,22.90
2014,07,19,12,18,32.60
2014,07,19,12,19,34.40
2014,07,19,12,20,35.90
2014,07,19,12,21,35.90
2014,07,19,12,22,32.80
2014,07,19,12,23,30.60
2014,07,19,12,24,27.00
2014,07,19,12,25,26.70
2014,07,19,12,26,30.90
2014,07,19,12,27,30.90
2014,07,19,12,28,28.50
2014,07,19,12,29,28.90
2014,07,19,12,30,27.40
2014,07,19,12,31,27.60
2014,07,19,12,32,27.50
2014,07,19,12,33,27.80
2014,07,19,12,34,29.40
2014,07,19,12,35,29.40
2014,07,19,12,36,29.30
2014,07,19,12,37,31.10
2014,07,19,12,38,28.30
2014,07,19,12,39,30.20
2014,07,19,12,40,32.30
2014,07,19,12,41,33.30
2014,07,19,12,42,33.10
2014,07,19,12,43,33.00
2014,07,19,12,44,30.00
2014,07,19,12,45,30.60
2014,07,19,12,46,30.40
2014,07,19,12,47,29.90
2014,07,19,12,48,30.40
2014,07,19,12,49,31.30
2014,07,19,12,50,32.60
2014,07,19,12,51,32.00
2014,07,19,12,52,31.50
2014,07,19,12,53,30.70
2014,07,19,12,54,29.80
2014,07,19,12,55,28.80
2014,07,19,12,56,33.40
2014,07,19,12,57,32.10
2014,07,19,12,58,32.50
2014,07,19,12,59,29.60
2014,07,19,13,00,24.10
2014,07,19,13,01,26.80
2014,07,19,13,02,29.90
2014,07,19,13,03,31.10
2014,07,19,13,04,33.30
2014,07,19,13,05,28.70
2014,07,19,13,06,27.10
2014,07,19,13,07,30.80
2014,07,19,13,08,27.40
2014,07,19,13,09,26.70
2014,07,19,13,10,27.20
2014,07,19,13,11,31.90
2014,07,19,13,12,28.50
2014,07,19,13,13,29.50
2014,07,19,13,14,30.60
2014,07,19,13,15,29.40
2014,07,19,13,16,23.50
2014,07,19,13,17,32.20
2014,07,19,13,18,32.20
2014,07,19,13,19,32.20
2014,07,19,13,20,31.40
2014,07,19,13,21,24.40
2014,07,19,13,22,30.40
2014,07,19,13,23,30.90
2014,07,19,13,24,29.40
2014,07,19,13,25,27.20
2014,07,19,13,26,26.70
2014,07,19,13,27,28.70
2014,07,19,13,28,29.20
2014,07,19,13,29,30.80
2014,07,19,13,30,27.40
2014,07,19,13,31,29.10
2014,07,19,13,32,23.30
2014,07,19,13,33,23.30
2014,07,19,13,34,24.10
2014,07,19,13,35,25.70
2014,07,19,13,36,21.50
2014,07,19,13,37,22.40
2014,07,19,13,38,25.00
2014,07,19,13,39,23.30
2014,07,19,13,40,20.20
2014,07,19,13,41,19.30
2014,07,19,13,42,24.80
2014,07,19,13,43,24.90
2014,07,19,13,44,24.70
2014,07,19,13,45,22.40
2014,07,19,13,46,17.60
2014,07,19,13,47,20.80
2014,07,19,13,48,24.10
2014,07,19,13,49,19.60
2014,07,19,13,50,18.40
2014,07,19,13,51,19.60
2014,07,19,13,52,24.90
2014,07,19,13,53,23.20
2014,07,19,13,54,18.30
2014,07,19,13,55,22.00
2014,07,19,13,56,19.50
2014,07,19,13,57,21.30
2014,07,19,13,58,18.20
2014,07,19,13,59,17.10
2014,07,19,14,00,21.30
2014,07,19,14,01,24.10
2014,07,19,14,02,22.40
2014,07,19,14,03,25.30
2014,07,19,14,04,19.20
2014,07,19,14,05,22.40
2014,07,19,14,06,21.00
2014,07,19,14,07,21.00
2014,07,19,14,08,22.00
2014,07,19,14,09,24.90
2014,07,19,14,10,24.50
2014,07,19,14,11,19.00
2014,07,19,14,12,20.20
2014,07,19,14,13,22.30
2014,07,19,14,14,23.90
2014,07,19,14,15,19.30
2014,07,19,14,16,18.60
2014,07,19,14,17,19.10
2014,07,19,14,18,20.00
2014,07,19,14,19,20.00
2014,07,19,14,20,17.50
2014,07,19,14,21,21.30
2014,07,19,14,22,25.40
2014,07,19,14,23,17.80
2014,07,19,14,24,16.90
2014,07,19,14,25,16.20
2014,07,19,14,26,14.20
2014,07,19,14,27,13.40
2014,07,19,14,28,13.80
2014,07,19,14,29,13.40
2014,07,19,14,30,19.30
2014,07,19,14,31,16.20
2014,07,19,14,32,19.60
2014,07,19,14,33,15.80
2014,07,19,14,34,18.40
2014,07,19,14,35,17.10
2014,07,19,14,36,21.40
2014,07,19,14,37,20.70
2014,07,19,14,38,16.60
2014,07,19,14,39,17.30
2014,07,19,14,40,18.20
2014,07,19,14,41,17.90
2014,07,19,14,42,18.40
2014,07,19,14,43,19.30
2014,07,19,14,44,12.30
2014,07,19,14,45,17.20
2014,07,19,14,46,17.50
2014,07,19,14,47,18.70
2014,07,19,14,48,17.50
2014,07,19,14,49,17.60
2014,07,19,14,50,16.40
2014,07,19,14,51,16.80
2014,07,19,14,52,20.40
2014,07,19,14,53,19.50
2014,07,19,14,54,17.90
2014,07,19,14,55,18.30
2014,07,19,14,56,20.00
2014,07,19,14,57,18.20
2014,07,19,14,58,18.70
2014,07,19,14,59,18.80
2014,07,19,15,00,13.00
2014,07,19,15,01,17.70
2014,07,19,15,02,17.80
2014,07,19,15,03,19.80
2014,07,19,15,04,16.50
2014,07,19,15,05,18.20
2014,07,19,15,06,19.90
2014,07,19,15,07,17.10
2014,07,19,15,08,16.40
2014,07,19,15,09,19.30
2014,07,19,15,10,12.90
2014,07,19,15,11,21.90
2014,07,19,15,12,17.00
2014,07,19,15,13,14.70
2014,07,19,15,14,17.80
2014,07,19,15,15,17.70
2014,07,19,15,16,16.60
2014,07,19,15,17,12.60
2014,07,19,15,18,14.00
2014,07,19,15,19,18.90
2014,07,19,15,20,18.50
2014,07,19,15,21,12.50
2014,07,19,15,22,15.40
2014,07,19,15,23,17.40
2014,07,19,15,24,15.80
2014,07,19,15,25,23.70
2014,07,19,15,26,24.90
2014,07,19,15,27,22.70
2014,07,19,15,28,29.20
2014,07,19,15,29,21.40
2014,07,19,15,30,21.70
2014,07,19,15,31,25.10
2014,07,19,15,32,20.60
2014,07,19,15,33,21.00
2014,07,19,15,34,23.00
2014,07,19,15,35,21.40
2014,07,19,15,36,18.30
2014,07,19,15,37,16.80
2014,07,19,15,38,24.70
2014,07,19,15,39,26.40
2014,07,19,15,40,26.40
2014,07,19,15,41,25.30
2014,07,19,15,42,23.90
2014,07,19,15,43,17.60
2014,07,19,15,44,20.40
2014,07,19,15,45,20.60
2014,07,19,15,46,21.20
2014,07,19,15,47,24.70
2014,07,19,15,48,25.20
2014,07,19,15,49,25.10
2014,07,19,15,50,22.90
2014,07,19,15,51,21.00
2014,07,19,15,52,21.80
2014,07,19,15,53,23.70
2014,07,19,15,54,25.20
2014,07,19,15,55,27.70
2014,07,19,15,56,24.90
2014,07,19,15,57,28.00
2014,07,19,15,58,23.70
2014,07,19,15,59,23.20
2014,07,19,16,00,24.70
2014,07,19,16,01,25.80
2014,07,19,16,02,26.90
2014,07,19,16,03,29.90
2014,07,19,16,04,32.60
2014,07,19,16,05,25.90
2014,07,19,16,06,25.80
2014,07,19,16,07,25.50
2014,07,19,16,08,26.10
2014,07,19,16,09,27.30
2014,07,19,16,10,29.40
2014,07,19,16,11,24.90
2014,07,19,16,12,24.80
2014,07,19,16,13,23.60
2014,07,19,16,14,23.60
2014,07,19,16,15,23.70
2014,07,19,16,16,18.30
2014,07,19,16,17,17.30
2014,07,19,16,18,17.40
2014,07,19,16,19,21.90
2014,07,19,16,20,24.70
2014,07,19,16,21,25.20
2014,07,19,16,22,25.60
2014,07,19,16,23,23.00
2014,07,19,16,24,26.30
2014,07,19,16,25,22.80
2014,07,19,16,26,23.60
2014,07,19,16,27,26.00
2014,07,19,16,28,24.40
2014,07,19,16,29,25.10
2014,07,19,16,30,24.60
2014,07,19,16,31,24.60
2014,07,19,16,32,23.40
2014,07,19,16,33,23.40
2014,07,19,16,34,23.00
2014,07,19,16,35,23.20
2014,07,19,16,36,22.30
2014,07,19,16,37,24.70
2014,07,19,16,38,23.10
2014,07,19,16,39,26.20
2014,07,19,16,40,27.40
2014,07,19,16,41,27.40
2014,07,19,16,42,27.50
2014,07,19,16,43,23.20
2014,07,19,16,44,26.00
2014,07,19,16,45,27.30
2014,07,19,16,46,25.60
2014,07,19,16,47,27.70
2014,07,19,16,48,23.80
2014,07,19,16,49,25.80
2014,07,19,16,50,28.30
2014,07,19,16,51,28.10
2014,07,19,16,52,25.20
2014,07,19,16,53,24.10
2014,07,19,16,54,22.50
2014,07,19,16,55,21.20
2014,07,19,16,56,28.00
2014,07,19,16,57,25.20
2014,07,19,16,58,25.20
2014,07,19,16,59,23.40
2014,07,19,17,00,22.80
2014,07,19,17,01,28.60
2014,07,19,17,02,40.30
2014,07,19,17,03,28.40
2014,07,19,17,04,34.40
2014,07,19,17,05,31.60
2014,07,19,17,06,24.20
2014,07,19,17,07,28.40
2014,07,19,17,08,24.50
2014,07,19,17,09,21.10
2014,07,19,17,10,22.90
2014,07,19,17,11,23.70
2014,07,19,17,12,21.40
2014,07,19,17,13,18.90
2014,07,19,17,14,29.20
2014,07,19,17,15,21.50
2014,07,19,17,16,25.00
2014,07,19,17,17,27.20
2014,07,19,17,18,24.10
2014,07,19,17,19,20.80